User: anonymous   Login
Location: Keewatin
(47.4004°N, 93.0827°W)
Time: 13:10:59
(UTC+00:00)
Language:

PRISM - Orbit

View from above orbital plane
View from above orbital plane
View from above satellite
View from above satellite

Ground track
Ground track

The orbit data is extracted from the following two-line orbital elements,

1 33493U 09002B   20048.80403489  .00000144  00000-0  18129-4 0  9997
2 33493  98.1350 344.1779 0016108  94.0581 266.2481 14.96904552601661
Epoch (UTC): 17 February 2020 19:17:48
Eccentricity: 0.0016108
inclination: 98.1350°
perigee height: 565 km
apogee height: 587 km
right ascension of ascending node: 344.1779°
argument of perigee: 94.0581°
revolutions per day: 14.96904552
mean anomaly at epoch: 266.2481°
orbit number at epoch: 60166

The dashed part of the orbit path shows where the satellite is in the earth's shadow,  

DLR